Location: Sungai Bunut
(2.6333°N, 113.7333°E)
Time: 15:04:58
(UTC+00:00)

Altair - All Passes

Search period start: 03 December 2023 00:00
Search period end: 13 December 2023 00:00
Orbit: 1501 x 1682 km, 47.2° (Epoch: 02 December)

Date Brightness Start Highest point End Pass type
(mag) Time Alt. Az. Time Alt. Az. Time Alt. Az.
03 Dec - 08:31:47 10° NNW 08:39:40 32° NE 08:47:39 10° ESE daylight
03 Dec - 10:35:18 10° NW 10:44:10 53° SW 10:53:21 10° SSE visible
03 Dec - 21:21:33 10° SSW 21:31:26 57° SE 21:41:00 10° NE visible
03 Dec - 23:27:32 10° WSW 23:36:07 32° NW 23:44:29 10° NNE daylight
04 Dec - 08:06:55 10° N 08:14:27 28° NE 08:22:02 10° ESE daylight
04 Dec - 10:10:01 10° NW 10:18:59 59° SW 10:28:16 10° SSE daylight
04 Dec - 20:56:28 10° SSW 21:06:12 51° SE 21:15:38 10° ENE visible
04 Dec - 23:01:56 10° WSW 23:10:51 36° NW 23:19:34 10° NNE daylight
05 Dec - 07:42:07 10° N 07:49:13 25° NE 07:56:21 10° E daylight
05 Dec - 09:44:44 10° NW 09:53:48 66° SW 10:03:10 10° SSE daylight
05 Dec - 11:57:25 10° SW 11:58:55 10° SW 12:00:25 10° SW visible
05 Dec - 20:31:25 10° SSW 20:40:57 45° SE 20:50:14 10° ENE visible
05 Dec - 22:36:23 10° WSW 22:45:37 41° NW 22:54:37 10° NNE daylight
06 Dec - 07:17:21 10° N 07:23:58 22° NE 07:30:36 10° E daylight
06 Dec - 09:19:29 10° NW 09:28:37 74° SW 09:38:01 10° SSE daylight
06 Dec - 11:30:06 10° WSW 11:33:36 12° SW 11:37:10 10° SSW visible
06 Dec - 20:06:25 10° SSW 20:15:43 40° SE 20:24:47 10° ENE visible
06 Dec - 22:10:53 10° WSW 22:20:22 46° NW 22:29:38 10° NNE daylight
07 Dec - 06:52:40 10° N 06:58:43 19° NE 07:04:44 10° E daylight
07 Dec - 08:54:17 10° NW 09:03:27 83° SW 09:12:52 10° SE daylight
07 Dec - 11:03:40 10° WSW 11:08:19 15° SW 11:13:01 10° SSW visible
07 Dec - 19:41:26 10° SSW 19:50:27 36° SE 19:59:17 10° ENE visible
07 Dec - 21:45:26 10° WSW 21:55:08 52° NW 22:04:36 10° NNE visible
08 Dec - 06:28:06 10° N 06:33:26 17° NE 06:38:45 10° E daylight
08 Dec - 08:29:06 10° NW 08:38:17 89° NE 08:47:40 10° SE daylight
08 Dec - 10:37:33 10° W 10:43:01 17° SW 10:48:37 10° S visible
08 Dec - 19:16:30 10° S 19:25:12 32° SE 19:33:44 10° ENE visible
08 Dec - 21:20:01 10° SW 21:29:54 58° NW 21:39:33 10° NNE visible
09 Dec - 06:03:41 10° NNE 06:08:08 14° NE 06:12:34 10° ENE daylight
09 Dec - 08:03:57 10° NW 08:13:07 80° NE 08:22:27 10° SE daylight
09 Dec - 10:11:38 10° W 10:17:45 20° SW 10:24:03 10° S daylight
09 Dec - 18:51:38 10° S 18:59:56 28° SE 19:08:06 10° ENE visible
09 Dec - 20:54:39 10° SW 21:04:40 64° NW 21:14:28 10° NNE visible
09 Dec - 23:07:11 10° WNW 23:10:08 11° NW 23:13:04 10° NNW daylight
10 Dec - 05:39:32 10° NNE 05:42:49 12° NE 05:46:05 10° ENE daylight
10 Dec - 07:38:51 10° NNW 07:47:57 72° NE 07:57:12 10° SE daylight
10 Dec - 09:45:50 10° W 09:52:31 22° SW 09:59:22 10° S daylight
10 Dec - 18:26:49 10° S 18:34:39 25° SE 18:42:23 10° E visible
10 Dec - 20:29:19 10° SW 20:39:27 72° NW 20:49:21 10° NNE visible
10 Dec - 22:40:20 10° WNW 22:44:46 14° NW 22:49:09 10° NNW daylight
11 Dec - 05:16:26 10° NE 05:17:28 10° NE 05:18:31 10° NE daylight
11 Dec - 07:13:45 10° NNW 07:22:46 64° NE 07:31:54 10° SE daylight
11 Dec - 09:20:08 10° W 09:27:17 25° SW 09:34:36 10° S daylight
11 Dec - 18:02:04 10° S 18:09:22 22° SE 18:16:35 10° E visible
11 Dec - 20:04:01 10° SW 20:14:12 79° NW 20:24:12 10° NE visible
11 Dec - 22:13:56 10° WNW 22:19:24 16° NW 22:24:50 10° N daylight
12 Dec - 06:48:41 10° NNW 06:57:36 57° NE 07:06:35 10° SE daylight
12 Dec - 08:54:31 10° WNW 09:02:04 29° SW 09:09:47 10° S daylight
12 Dec - 17:37:25 10° S 17:44:04 19° SE 17:50:40 10° E visible
12 Dec - 19:38:45 10° SW 19:48:59 87° NW 19:59:01 10° NE visible
12 Dec - 21:47:46 10° W 21:54:05 18° NW 22:00:19 10° N visible
